Location: South Tamworth Observatory
(43.8246°N, 71.3026°W)
Time: 11:59:56
(UTC-05:00)

Amateur Radio Satellites - All Passes

Search period start: 19 January 2017 11:29
Search period end: 20 January 2017 11:29
Location: South Tamworth Observatory, 43.8246°N, 71.3026°W

Satellite Date Start Highest point End Downlink Frequencies (MHz)
Time Altitude Azimuth
JAS-2 19 Jan 11:31:25 11:34:41 16° 273° (W) 11:38:08 435.910
Oscar 19 19 Jan 11:33:17 11:37:57 34° 67° (ENE) 11:42:37 437.125/150
VELOX 1 19 Jan 11:36:20 11:40:32 43° 99° (E) 11:44:42 145.980
Gurwin Techsat 1B 19 Jan 11:37:45 11:41:43 22° 62° (ENE) 11:45:44 435.225
BUGSAT 1 19 Jan 11:42:14 11:46:14 54° 259° (W) 11:50:12 437.445
PCSat 19 Jan 11:43:19 11:43:51 10° 259° (W) 11:44:23 145.827
Cosmos 2491 19 Jan 11:57:15 12:05:13 37° 69° (ENE) 12:13:10 435.465 / 435.565
QB50P1 19 Jan 12:01:24 12:03:03 12° 270° (W) 12:04:40 145.935-145.965
POLYITAN 1 19 Jan 12:05:50 12:06:50 11° 271° (W) 12:07:50 437.675
50 SAT 19 Jan 12:08:18 12:11:53 82° 104° (ESE) 12:15:25 437.505
YUBILEINY 19 Jan 12:10:05 12:14:40 15° 74° (ENE) 12:19:14 435.215
DX 1 19 Jan 12:12:45 12:17:00 50° 100° (E) 12:21:12 434.975-435.025
TISAT 1 19 Jan 12:13:48 12:15:16 12° 90° (E) 12:16:44 437.305
UKube-1 19 Jan 12:14:34 12:18:37 38° 98° (E) 12:22:38 .
SPROUT 19 Jan 12:14:45 12:19:02 86° 106° (ESE) 12:23:17 437.525
AO-7 19 Jan 12:15:25 12:20:56 20° 47° (NE) 12:26:27 29.400- 29.500
ITAMSAT 1 19 Jan 12:17:30 12:18:37 11° 55° (NE) 12:19:45 435.822/435.867
CUSAT 1 19 Jan 12:21:55 12:28:06 24° 62° (ENE) 12:34:07 437.405
CUBEBUG 1 19 Jan 12:26:27 12:30:22 34° 291° (WNW) 12:34:15 437.445
AO-85 19 Jan 12:29:39 12:30:54 11° 109° (ESE) 12:32:09 145.980
AISAT 19 Jan 12:39:19 12:43:25 39° 290° (WNW) 12:47:28 437.250
AIST 1 19 Jan 12:43:09 12:45:59 17° 86° (E) 12:48:50
ESTCUBE 1 19 Jan 12:57:56 12:59:50 13° 300° (WNW) 13:01:44 437.505/2401.250
DANDE 19 Jan 12:59:11 13:04:04 18° 61° (ENE) 13:09:17 436.750
Oscar 19 19 Jan 13:12:38 13:17:15 32° 264° (W) 13:21:54 437.125/150
VELOX 1 19 Jan 13:13:30 13:16:42 20° 296° (WNW) 13:19:52 145.980
Gurwin Techsat 1B 19 Jan 13:16:05 13:21:17 55° 260° (W) 13:26:31 435.225
ITUPSAT 1 19 Jan 13:18:22 13:20:29 13° 89° (E) 13:22:35 437.325
TISAT 1 19 Jan 13:47:10 13:51:19 63° 286° (WNW) 13:55:26 437.305
DX 1 19 Jan 13:49:58 13:52:47 17° 297° (WNW) 13:55:35 434.975-435.025
UKube-1 19 Jan 13:51:09 13:54:25 21° 295° (WNW) 13:57:39 .
ITAMSAT 1 19 Jan 13:52:01 13:57:09 71° 73° (ENE) 14:02:19 435.822/435.867
BEESAT 19 Jan 13:52:15 13:56:22 28° 95° (E) 14:00:29 436.000
SWISSCUBE 19 Jan 13:53:37 13:57:57 32° 97° (E) 14:02:14 437.505
SPROUT 19 Jan 13:53:39 13:54:16 10° 301° (WNW) 13:54:52 437.525
Cosmos 2491 19 Jan 13:53:56 14:02:21 53° 271° (W) 14:10:48 435.465 / 435.565
YUBILEINY 19 Jan 14:01:05 14:09:51 77° 95° (E) 14:18:43 435.215
MOZHAYETS 4 19 Jan 14:01:06 14:01:54 10° 87° (E) 14:02:42
CUSAT 1 19 Jan 14:02:57 14:10:59 85° 261° (W) 14:18:32 437.405
AO-7 19 Jan 14:04:02 14:12:22 75° 68° (ENE) 14:20:45 29.400- 29.500
Cosmos 2504 19 Jan 14:05:52 14:14:03 48° 89° (E) 14:21:47 435.465 / 435.565
AO-85 19 Jan 14:06:03 14:10:46 89° 304° (NW) 14:15:09 145.980
AIST 1 19 Jan 14:19:03 14:23:13 43° 283° (WNW) 14:27:24
O/OREOS (USA 219) 19 Jan 14:27:57 14:30:19 14° 49° (NE) 14:32:41 437.305
DANDE 19 Jan 14:40:12 14:47:50 75° 79° (ENE) 14:56:14 436.750
ITUPSAT 1 19 Jan 14:54:02 14:58:51 75° 286° (WNW) 15:03:38 437.325
HORYU 2 19 Jan 14:58:30 15:00:16 12° 59° (ENE) 15:02:02 437.375
SO-50 19 Jan 15:13:14 15:16:52 23° 41° (NE) 15:20:25 436.795
BRITE-PL 19 Jan 15:21:48 15:27:14 48° 71° (ENE) 15:32:38 437.365/2234.400
BEESAT 19 Jan 15:29:52 15:34:10 34° 292° (WNW) 15:38:27 436.000
SWISSCUBE 19 Jan 15:31:30 15:35:38 30° 294° (WNW) 15:39:47 437.505
GOMX 1 19 Jan 15:32:51 15:37:16 26° 66° (ENE) 15:41:32 467.674
ITAMSAT 1 19 Jan 15:34:16 15:37:09 15° 270° (W) 15:40:02 435.822/435.867
MOZHAYETS 4 19 Jan 15:34:59 15:39:40 84° 284° (WNW) 15:44:18
Cubesat XI-IV 19 Jan 15:39:27 15:42:19 15° 58° (ENE) 15:45:10 437.490
STARS 19 Jan 15:43:54 15:46:51 18° 92° (E) 15:49:47 437.465
CUSAT 1 19 Jan 15:46:43 15:51:45 19° 281° (W) 15:56:39 437.405
AO-85 19 Jan 15:49:02 15:51:44 15° 322° (NW) 15:54:20 145.980
NOAA 15 19 Jan 15:51:24 15:55:08 20° 61° (ENE) 15:58:53 137.62
AO-7 19 Jan 15:59:17 16:05:52 25° 267° (W) 16:12:30 29.400- 29.500
Cosmos 2504 19 Jan 15:59:31 16:07:31 40° 288° (WNW) 16:15:08 435.465 / 435.565
M-CUBED/EXP-1 PRIME 19 Jan 16:00:35 16:03:57 59° 106° (ESE) 16:07:11 437.505
YUBILEINY 19 Jan 16:00:37 16:07:37 26° 296° (WNW) 16:14:42 435.215
BEESAT 3 19 Jan 16:01:38 16:05:20 45° 119° (ESE) 16:09:07 437.485
O/OREOS (USA 219) 19 Jan 16:05:48 16:10:18 78° 249° (WSW) 16:14:49 437.305
LilacSat-2 19 Jan 16:17:14 16:20:13 23° 68° (ENE) 16:23:14 437.200
CUBESAT XI-V 19 Jan 16:17:47 16:22:16 43° 98° (E) 16:26:43 437.345
DOVE 4 19 Jan 16:17:49 16:21:58 27° 68° (ENE) 16:25:56 437.250
KKS-1 19 Jan 16:22:51 16:27:17 83° 287° (WNW) 16:31:43 437.445
DANDE 19 Jan 16:23:54 16:30:02 26° 274° (W) 16:36:34 436.750
HORYU 2 19 Jan 16:31:47 16:36:11 77° 257° (WSW) 16:40:37 437.375
CUTE-I 19 Jan 16:33:55 16:38:52 42° 68° (ENE) 16:43:51 437.470
AUBIESAT-1 19 Jan 16:38:15 16:41:35 53° 291° (WNW) 16:44:47 437.475
BEESAT 2 19 Jan 16:43:50 16:47:41 55° 120° (ESE) 16:51:37 435.950
HO-68 19 Jan 16:49:35 16:54:39 21° 54° (NE) 16:59:43 435.675
SO-50 19 Jan 16:53:13 16:57:38 55° 240° (WSW) 17:01:59 436.795
BRITE-PL 19 Jan 17:01:07 17:05:51 27° 267° (W) 17:10:35 437.365/2234.400
GOMX 1 19 Jan 17:09:56 17:15:06 45° 262° (W) 17:20:06 467.674
NOAA 18 19 Jan 17:12:06 17:17:27 53° 70° (ENE) 17:22:47 137.9125
MOZHAYETS 4 19 Jan 17:15:04 17:16:02 11° 302° (WNW) 17:17:02
Cubesat XI-IV 19 Jan 17:16:20 17:21:40 85° 256° (WSW) 17:27:01 437.490
STARS 19 Jan 17:19:15 17:23:26 45° 289° (WNW) 17:27:35 437.465
NOAA 15 19 Jan 17:29:12 17:34:25 62° 258° (WSW) 17:39:43 137.62
BEESAT 3 19 Jan 17:40:07 17:43:10 21° 317° (NW) 17:46:14 437.485
LilacSat-2 19 Jan 17:51:12 17:54:23 26° 264° (W) 17:57:38 437.200
CINEMA 3 19 Jan 17:53:49 17:58:09 55° 74° (ENE) 18:02:20 145.822/145.860
DOVE 4 19 Jan 17:54:53 17:59:31 37° 263° (W) 18:03:58 437.250
CUTE 1.7 + AOD 2 19 Jan 17:55:16 17:59:02 32° 69° (ENE) 18:02:50 437.475
CUBESAT XI-V 19 Jan 17:55:47 17:59:22 22° 295° (WNW) 18:02:56 437.345
CUTE-I 19 Jan 18:14:37 18:19:03 27° 266° (W) 18:23:31 437.470
Cosmos 2499 19 Jan 18:22:52 18:30:03 33° 85° (E) 18:36:49 435.465 / 435.565
BEESAT 2 19 Jan 18:22:56 18:25:48 19° 319° (NW) 18:28:42 435.950
CANX-2 19 Jan 18:23:44 18:27:58 75° 74° (ENE) 18:32:15 2200.000
AIST 2 19 Jan 18:34:00 18:36:45 17° 111° (ESE) 18:39:32 435.215
HO-68 19 Jan 18:34:16 18:41:29 87° 253° (WSW) 18:48:45 435.675
SEEDS 19 Jan 18:36:58 18:41:07 60° 74° (ENE) 18:45:19 437.485
COMPASS 1 19 Jan 18:44:24 18:48:25 48° 72° (ENE) 18:52:29 437.405
GONETS M04 19 Jan 18:49:08 18:56:58 40° 86° (E) 19:04:51
Oscar 11 19 Jan 18:49:58 18:52:57 18° 64° (ENE) 18:55:57 145.826/435.025
NOAA 18 19 Jan 18:54:11 18:58:24 22° 267° (W) 19:02:38 137.9125
CUBEBUG 2 19 Jan 18:55:17 18:59:23 59° 73° (ENE) 19:03:28 437.445
AAUSAT CUBESAT 2 19 Jan 18:56:40 19:00:42 50° 73° (ENE) 19:04:47 437.432
Cubesat XI-IV 19 Jan 19:01:11 19:02:30 11° 273° (W) 19:03:50 437.490
STRAND 1 19 Jan 19:16:01 19:21:11 81° 104° (ESE) 19:26:20 437.568
FUNcube-1 19 Jan 19:24:13 19:28:06 41° 71° (ENE) 19:32:01 145.935
UWE-3 19 Jan 19:25:39 19:29:47 81° 77° (ENE) 19:33:57 435.000/436.395/437.385
CUTE 1.7 + AOD 2 19 Jan 19:31:27 19:34:54 24° 266° (W) 19:38:22 437.475
CINEMA 3 19 Jan 19:33:12 19:35:35 14° 269° (W) 19:37:57 145.822/145.860
ZACube-1 19 Jan 19:46:30 19:50:37 82° 74° (ENE) 19:54:47 437.345
CANX-2 19 Jan 20:04:01 20:04:20 10° 272° (W) 20:04:40 2200.000
HUMSAT D 19 Jan 20:06:30 20:09:40 22° 66° (ENE) 20:12:52 437.325/437.525
AIST 2 19 Jan 20:10:49 20:14:50 50° 309° (NW) 20:18:56 435.215
Cosmos 2499 19 Jan 20:14:35 20:22:50 55° 283° (WNW) 20:30:31 435.465 / 435.565
SEEDS 19 Jan 20:15:21 20:17:12 13° 271° (W) 20:19:04 437.485
PRISM 19 Jan 20:21:28 20:24:35 20° 94° (E) 20:27:40 437.425
COMPASS 1 19 Jan 20:21:42 20:24:13 16° 269° (W) 20:26:46 437.405
DELFI C3 19 Jan 20:21:49 20:25:44 57° 74° (ENE) 20:29:42 145.870
Oscar 11 19 Jan 20:24:37 20:28:45 45° 261° (W) 20:32:56 145.826/435.025
HO-68 19 Jan 20:25:57 20:30:10 16° 272° (W) 20:34:24 435.675
AAUSAT CUBESAT 2 19 Jan 20:34:05 20:36:28 15° 270° (W) 20:38:51 437.432
CUBEBUG 2 19 Jan 20:34:42 20:36:23 12° 270° (W) 20:38:04 437.445
TIGRISAT 19 Jan 20:43:38 20:45:04 11° 89° (E) 20:46:30 435.000
GONETS M04 19 Jan 20:45:16 20:53:36 48° 286° (WNW) 21:02:02
ESTCUBE 1 19 Jan 20:47:27 20:48:01 10° 58° (ENE) 20:48:35 437.505/2401.250
JAS-2 19 Jan 20:54:29 20:55:07 10° 84° (E) 20:55:45 435.910
STRAND 1 19 Jan 20:56:52 20:59:42 15° 301° (WNW) 21:02:30 437.568
AO-85 19 Jan 20:57:06 20:59:28 15° 38° (NE) 21:01:47 145.980
ANTELSAT 19 Jan 20:57:19 21:00:17 17° 92° (E) 21:03:18 437.575/2403.000
BY70-1 19 Jan 20:57:34 20:59:25 15° 65° (ENE) 21:01:22 436.1900
FUNcube-1 19 Jan 21:01:50 21:04:33 17° 268° (W) 21:07:18 145.935
ISS 19 Jan 21:03:42 21:04:07 10° 130° (SE) 21:04:32 145.825
HUMSAT D 19 Jan 21:41:23 21:45:05 33° 263° (W) 21:48:52 437.325/437.525
CUBEBUG 1 19 Jan 21:47:43 21:51:15 24° 66° (ENE) 21:54:47 437.445
PRISM 19 Jan 21:56:12 21:59:57 34° 291° (WNW) 22:03:40 437.425
DELFI C3 19 Jan 21:59:18 22:00:54 12° 270° (W) 22:02:31 145.870
AISAT 19 Jan 22:02:01 22:05:30 23° 65° (ENE) 22:09:00 437.250
UNISAT 6 19 Jan 22:04:10 22:08:36 87° 99° (E) 22:13:08 437.425
QB50P2 19 Jan 22:13:23 22:14:37 11° 89° (E) 22:15:51 145.880/145.840
Cosmos 2499 19 Jan 22:16:06 22:17:50 11° 305° (NW) 22:19:32 435.465 / 435.565
TIGRISAT 19 Jan 22:17:48 22:22:13 73° 285° (WNW) 22:26:42 435.000
ESTCUBE 1 19 Jan 22:19:30 22:24:02 83° 78° (ENE) 22:28:37 437.505/2401.250
BY70-1 19 Jan 22:26:53 22:29:30 27° 264° (W) 22:32:20 436.1900
ANTELSAT 19 Jan 22:32:59 22:37:14 48° 288° (WNW) 22:41:34 437.575/2403.000
POPSAT HIP 1 19 Jan 22:33:44 22:36:33 17° 92° (E) 22:39:22 437.405
JAS-2 19 Jan 22:34:13 22:41:16 60° 101° (E) 22:48:54 435.910
VELOX 1 19 Jan 22:34:32 22:38:47 45° 71° (ENE) 22:43:01 145.980
AO-85 19 Jan 22:36:26 22:40:21 72° 238° (WSW) 22:44:13 145.980
ISS 19 Jan 22:36:49 22:40:04 78° 145° (SE) 22:43:20 145.825
RS-15 19 Jan 22:39:13 22:50:12 47° 109° (ESE) 23:01:36 29.354- 29.394
50 SAT 19 Jan 22:44:02 22:47:21 38° 71° (ENE) 22:50:43 437.505
DUCHIFAT 1 19 Jan 22:45:19 22:48:25 20° 93° (E) 22:51:31 145.980
NANOSAT C BR1 19 Jan 22:50:10 22:53:38 24° 95° (E) 22:57:05 145.865
PCSat 19 Jan 23:00:32 23:01:30 10° 101° (E) 23:02:27 145.827
TISAT 1 19 Jan 23:07:15 23:08:41 12° 61° (ENE) 23:10:08 437.305
SPROUT 19 Jan 23:09:01 23:13:16 76° 76° (ENE) 23:17:31 437.525
DX 1 19 Jan 23:09:12 23:13:26 52° 72° (ENE) 23:17:42 434.975-435.025
UKube-1 19 Jan 23:10:05 23:14:07 39° 69° (ENE) 23:18:08 .
BUGSAT 1 19 Jan 23:23:15 23:26:03 18° 93° (E) 23:28:51 437.445
CUBEBUG 1 19 Jan 23:23:19 23:27:21 35° 263° (W) 23:31:25 437.445
AISAT 19 Jan 23:37:38 23:41:45 37° 262° (W) 23:45:54 437.250
QB50P1 19 Jan 23:41:29 23:45:43 84° 284° (WNW) 23:49:56 145.935-145.965
UNISAT 6 19 Jan 23:43:30 23:44:40 11° 300° (WNW) 23:45:50 437.425
POLYITAN 1 19 Jan 23:45:24 23:49:38 75° 284° (WNW) 23:53:52 437.675
QB50P2 19 Jan 23:46:39 23:50:52 68° 285° (WNW) 23:55:03 145.880/145.840
Cosmos 2504 19 Jan 23:58:32 00:02:51 16° 59° (ENE) 00:07:04 435.465 / 435.565
ESTCUBE 1 20 Jan 00:01:09 00:01:26 10° 272° (W) 00:01:43 437.505/2401.250
POPSAT HIP 1 20 Jan 00:08:32 00:12:32 43° 289° (WNW) 00:16:32 437.405
YUBILEINY 20 Jan 00:09:53 00:18:08 41° 71° (ENE) 00:26:15 435.215
VELOX 1 20 Jan 00:12:22 00:15:27 18° 268° (W) 00:18:33 145.980
ISS 20 Jan 00:14:01 00:16:49 26° 345° (NNW) 00:19:38 145.825
BEESAT 3 20 Jan 00:17:07 00:20:57 42° 50° (NE) 00:24:46 437.485
50 SAT 20 Jan 00:18:48 00:20:45 14° 268° (W) 00:22:42 437.505
JAS-2 20 Jan 00:19:54 00:25:56 32° 297° (WNW) 00:32:26 435.910
DUCHIFAT 1 20 Jan 00:20:21 00:24:13 37° 290° (WNW) 00:28:05 145.980
AIST 1 20 Jan 00:24:24 00:28:34 49° 78° (ENE) 00:32:41
NANOSAT C BR1 20 Jan 00:25:40 00:29:21 30° 291° (WNW) 00:33:03 145.865
ITUPSAT 1 20 Jan 00:25:59 00:29:15 19° 62° (ENE) 00:32:32 437.325
PCSat 20 Jan 00:38:32 00:43:56 78° 119° (ESE) 00:49:23 145.827
TISAT 1 20 Jan 00:39:34 00:43:44 74° 259° (W) 00:47:55 437.305
UKube-1 20 Jan 00:47:04 00:50:16 20° 266° (W) 00:53:30 .
DX 1 20 Jan 00:47:18 00:49:55 16° 268° (W) 00:52:34 434.975-435.025
RS-15 20 Jan 00:50:35 01:02:25 61° 314° (NW) 01:14:42 29.354- 29.394
BUGSAT 1 20 Jan 00:57:49 01:01:34 38° 289° (WNW) 01:05:18 437.445
BEESAT 20 Jan 00:59:44 01:04:06 38° 69° (ENE) 01:08:31 436.000
BEESAT 2 20 Jan 01:00:17 01:04:15 51° 52° (NE) 01:08:11 435.950
Cosmos 2491 20 Jan 01:00:29 01:08:18 39° 86° (E) 01:16:09 435.465 / 435.565
SWISSCUBE 20 Jan 01:01:10 01:05:38 44° 70° (ENE) 01:10:10 437.505
MOZHAYETS 4 20 Jan 01:03:48 01:05:52 13° 60° (ENE) 01:07:58
M-CUBED/EXP-1 PRIME 20 Jan 01:15:37 01:17:16 12° 57° (ENE) 01:18:52 437.505
Oscar 19 20 Jan 01:21:59 01:27:12 82° 104° (ESE) 01:32:21 437.125/150
CUSAT 1 20 Jan 01:27:36 01:29:57 13° 75° (ENE) 01:32:31 437.405
Gurwin Techsat 1B 20 Jan 01:30:45 01:35:58 53° 100° (E) 01:41:09 435.225
KKS-1 20 Jan 01:48:29 01:50:19 12° 60° (ENE) 01:52:09 437.445
Cosmos 2504 20 Jan 01:50:05 01:57:36 84° 83° (E) 02:04:46 435.465 / 435.565
AUBIESAT-1 20 Jan 01:51:05 01:54:17 21° 62° (ENE) 01:57:21 437.475
ISS 20 Jan 01:51:30 01:54:01 21° 5° (N) 01:56:35 145.825
BEESAT 3 20 Jan 01:55:22 01:58:18 20° 248° (WSW) 02:01:12 437.485
ITUPSAT 1 20 Jan 02:02:00 02:06:40 55° 259° (W) 02:11:22 437.325
AIST 1 20 Jan 02:03:24 02:05:41 14° 276° (W) 02:07:58
ITAMSAT 1 20 Jan 02:04:08 02:08:11 22° 93° (E) 02:12:12 435.822/435.867
AO-7 20 Jan 02:05:25 02:11:29 22° 91° (E) 02:17:30 29.400- 29.500
YUBILEINY 20 Jan 02:06:43 02:15:02 48° 272° (W) 02:23:16 435.215
PCSat 20 Jan 02:23:53 02:27:57 21° 319° (NW) 02:32:02 145.827
MOZHAYETS 4 20 Jan 02:37:50 02:42:24 77° 258° (WSW) 02:47:01
BEESAT 20 Jan 02:38:08 02:41:59 25° 266° (W) 02:45:53 436.000
BEESAT 2 20 Jan 02:39:06 02:41:38 16° 249° (WSW) 02:44:11 435.950
PHONESAT 2.4 20 Jan 02:39:44 02:41:41 24° 167° (SSE) 02:43:37 2401.200-2431.200
SWISSCUBE 20 Jan 02:40:01 02:43:37 21° 267° (W) 02:47:16 437.505
STARS 20 Jan 02:41:51 02:45:00 20° 64° (ENE) 02:48:08 437.465
M-CUBED/EXP-1 PRIME 20 Jan 02:46:50 02:51:14 81° 250° (WSW) 02:55:22 437.505
AIST 2 20 Jan 02:52:50 02:56:11 22° 42° (NE) 02:59:31 435.215
Cosmos 2491 20 Jan 02:56:36 03:04:56 49° 286° (WNW) 03:13:20 435.465 / 435.565
Oscar 19 20 Jan 03:03:00 03:05:50 15° 302° (WNW) 03:08:39 437.125/150
CUSAT 1 20 Jan 03:05:17 03:10:21 89° 104° (ESE) 03:17:04 437.405
RS-15 20 Jan 03:07:51 03:18:11 30° 345° (NNW) 03:28:40 29.354- 29.394
Gurwin Techsat 1B 20 Jan 03:11:29 03:15:32 23° 298° (WNW) 03:19:35 435.225
KKS-1 20 Jan 03:21:49 03:26:15 78° 258° (WSW) 03:30:43 437.445
CUBESAT XI-V 20 Jan 03:22:00 03:26:31 49° 71° (ENE) 03:31:04 437.345
AUBIESAT-1 20 Jan 03:24:29 03:28:30 38° 256° (WSW) 03:32:18 437.475
ISS 20 Jan 03:27:55 03:31:04 45° 25° (NNE) 03:34:13 145.825
BRITE-PL 20 Jan 03:28:08 03:29:58 12° 86° (E) 03:31:45 437.365/2234.400
ITAMSAT 1 20 Jan 03:42:52 03:47:52 49° 291° (WNW) 03:52:53 435.822/435.867
Cosmos 2504 20 Jan 03:45:27 03:49:49 17° 283° (WNW) 03:54:07 435.465 / 435.565
DANDE 20 Jan 03:51:09 03:54:54 65° 96° (E) 04:00:00 436.750
AO-7 20 Jan 03:56:46 04:05:11 84° 290° (WNW) 04:13:31 29.400- 29.500
PHONESAT 2.4 20 Jan 04:13:22 04:15:29 33° 183° (S) 04:17:36 2401.200-2431.200
STARS 20 Jan 04:16:52 04:21:02 43° 261° (W) 04:25:14 437.465
HORYU 2 20 Jan 04:22:09 04:25:12 18° 92° (E) 04:28:14 437.375
AIST 2 20 Jan 04:30:48 04:34:55 50° 241° (WSW) 04:39:01 435.215
CUSAT 1 20 Jan 04:50:11 04:53:39 16° 305° (NW) 04:57:34 437.405
CUTE-I 20 Jan 04:50:50 04:53:43 15° 89° (E) 04:56:37 437.470
STRAND 1 20 Jan 04:56:14 04:59:40 18° 61° (ENE) 05:03:06 437.568
GONETS M04 20 Jan 04:57:32 05:03:58 22° 61° (ENE) 05:10:22
CUBESAT XI-V 20 Jan 05:00:51 05:04:09 19° 269° (W) 05:07:28 437.345
BRITE-PL 20 Jan 05:04:12 05:09:11 75° 285° (WNW) 05:13:43 437.365/2234.400
ISS 20 Jan 05:04:38 05:07:26 26° 222° (SW) 05:10:12 145.825
GOMX 1 20 Jan 05:10:47 05:15:08 49° 99° (E) 05:19:14 467.674
LilacSat-2 20 Jan 05:22:36 05:25:58 28° 96° (E) 05:29:20 437.200
RS-15 20 Jan 05:25:05 05:35:48 32° 20° (NNE) 05:46:20 29.354- 29.394
Cubesat XI-IV 20 Jan 05:32:24 05:37:15 34° 97° (E) 05:42:05 437.490
NOAA 18 20 Jan 05:33:37 05:37:30 19° 92° (E) 05:41:20 137.9125
DANDE 20 Jan 05:36:33 05:38:41 13° 304° (NW) 05:41:04 436.750
NOAA 15 20 Jan 05:42:57 05:48:04 44° 99° (E) 05:53:06 137.62
PHONESAT 2.4 20 Jan 05:47:41 05:49:13 16° 199° (SSW) 05:50:44 2401.200-2431.200
CINEMA 3 20 Jan 05:49:21 05:50:12 10° 89° (E) 05:51:04 145.822/145.860
AO-7 20 Jan 05:50:51 05:56:49 22° 311° (NW) 06:02:46 29.400- 29.500
DOVE 4 20 Jan 05:52:10 05:56:17 51° 99° (E) 06:00:18 437.250
HORYU 2 20 Jan 05:57:42 06:01:59 46° 289° (WNW) 06:06:15 437.375
HO-68 20 Jan 06:02:24 06:06:39 16° 88° (E) 06:10:50 435.675
Cosmos 2499 20 Jan 06:04:15 06:11:20 56° 77° (ENE) 06:18:14 435.465 / 435.565
CANX-2 20 Jan 06:09:18 06:11:02 12° 89° (E) 06:12:46 2200.000
O/OREOS (USA 219) 20 Jan 06:19:11 06:23:39 85° 291° (WNW) 06:28:10 437.305
CUTE-I 20 Jan 06:29:00 06:34:21 76° 286° (WNW) 06:39:41 437.470
STRAND 1 20 Jan 06:33:18 06:38:20 63° 258° (WSW) 06:43:26 437.568
CUBEBUG 2 20 Jan 06:46:28 06:47:50 11° 89° (E) 06:49:12 437.445
GOMX 1 20 Jan 06:49:56 06:52:48 17° 298° (WNW) 06:55:34 467.674
GONETS M04 20 Jan 06:53:10 07:02:04 89° 263° (W) 07:10:56
LilacSat-2 20 Jan 06:57:03 07:00:08 23° 292° (WNW) 07:03:12 437.200
SO-50 20 Jan 07:08:27 07:12:42 34° 116° (ESE) 07:16:55 436.795
PRISM 20 Jan 07:12:13 07:15:11 19° 64° (ENE) 07:18:10 437.425
Cubesat XI-IV 20 Jan 07:12:31 07:17:16 34° 294° (WNW) 07:22:01 437.490
NOAA 18 20 Jan 07:13:11 07:18:33 60° 289° (WNW) 07:23:54 137.9125
CUTE 1.7 + AOD 2 20 Jan 07:13:53 07:18:06 52° 99° (E) 07:22:16 437.475
UWE-3 20 Jan 07:14:43 07:17:15 15° 91° (E) 07:19:48 435.000/436.395/437.385
NOAA 15 20 Jan 07:23:13 07:27:35 26° 297° (WNW) 07:31:55 137.62
CINEMA 3 20 Jan 07:23:38 07:27:48 69° 285° (WNW) 07:32:03 145.822/145.860
DOVE 4 20 Jan 07:31:09 07:33:33 15° 297° (WNW) 07:35:55 437.250
ZACube-1 20 Jan 07:34:22 07:36:52 15° 91° (E) 07:39:23 437.345
RS-15 20 Jan 07:38:43 07:51:08 69° 50° (NE) 08:03:04 29.354- 29.394
PCSat 20 Jan 07:42:45 07:46:18 17° 38° (NE) 07:49:51 145.827
CANX-2 20 Jan 07:43:02 07:47:19 64° 286° (WNW) 07:51:34 2200.000
TIGRISAT 20 Jan 07:44:08 07:45:47 12° 61° (ENE) 07:47:27 435.000
HO-68 20 Jan 07:48:04 07:55:19 88° 105° (ESE) 08:02:29 435.675
SEEDS 20 Jan 07:54:50 07:59:07 82° 285° (WNW) 08:03:22 437.485
ANTELSAT 20 Jan 07:57:54 08:00:45 18° 64° (ENE) 08:03:37 437.575/2403.000
Cosmos 2499 20 Jan 07:58:16 08:03:54 26° 277° (W) 08:09:28 435.465 / 435.565
COMPASS 1 20 Jan 08:00:55 08:05:10 77° 104° (ESE) 08:09:21 437.405
O/OREOS (USA 219) 20 Jan 08:02:12 08:03:48 12° 313° (NW) 08:05:24 437.305
Oscar 11 20 Jan 08:10:28 08:14:18 29° 96° (E) 08:18:05 145.826/435.025
CUTE-I 20 Jan 08:11:38 08:13:29 12° 305° (NW) 08:15:22 437.470
AAUSAT CUBESAT 2 20 Jan 08:12:34 08:16:48 80° 104° (ESE) 08:20:57 437.432
CUBEBUG 2 20 Jan 08:20:35 08:24:52 71° 286° (WNW) 08:29:18 437.445
FUNcube-1 20 Jan 08:46:08 08:50:32 78° 103° (ESE) 08:54:59 145.935
PRISM 20 Jan 08:46:15 08:50:11 40° 261° (W) 08:54:09 437.425
SO-50 20 Jan 08:48:53 08:53:10 34° 314° (NW) 08:57:25 436.795
UWE-3 20 Jan 08:49:45 08:54:00 54° 287° (WNW) 08:58:21 435.000/436.395/437.385
JAS-2 20 Jan 08:49:51 08:54:13 26° 61° (ENE) 08:58:56 435.910
CUTE 1.7 + AOD 2 20 Jan 08:50:52 08:53:31 16° 297° (WNW) 08:56:11 437.475
GONETS M04 20 Jan 08:51:57 08:57:34 19° 284° (WNW) 09:03:14
UNISAT 6 20 Jan 09:04:11 09:08:27 88° 66° (ENE) 09:12:44 437.425
QB50P2 20 Jan 09:07:56 09:09:06 11° 60° (ENE) 09:10:18 145.880/145.840
ZACube-1 20 Jan 09:09:11 09:13:28 55° 286° (WNW) 09:17:49 437.345
TIGRISAT 20 Jan 09:17:40 09:21:54 71° 258° (WSW) 09:26:10 435.000
HUMSAT D 20 Jan 09:22:48 09:26:42 33° 97° (E) 09:30:37 437.325/437.525
PCSat 20 Jan 09:25:06 09:30:35 81° 61° (ENE) 09:36:00 145.827
POPSAT HIP 1 20 Jan 09:27:55 09:30:31 16° 64° (ENE) 09:33:09 437.405
DELFI C3 20 Jan 09:32:15 09:36:17 79° 102° (ESE) 09:40:15 145.870
ANTELSAT 20 Jan 09:33:03 09:37:09 45° 261° (W) 09:41:15 437.575/2403.000
HO-68 20 Jan 09:37:07 09:42:09 21° 306° (NW) 09:47:09 435.675
DUCHIFAT 1 20 Jan 09:38:46 09:41:37 18° 65° (ENE) 09:44:28 145.980
COMPASS 1 20 Jan 09:38:47 09:40:04 11° 299° (WNW) 09:41:22 437.405
NANOSAT C BR1 20 Jan 09:43:43 09:46:57 22° 66° (ENE) 09:50:12 145.865
Oscar 11 20 Jan 09:46:38 09:50:21 28° 292° (WNW) 09:54:02 145.826/435.025
AAUSAT CUBESAT 2 20 Jan 09:50:35 09:51:37 11° 300° (WNW) 09:52:38 437.432
RS-15 20 Jan 09:52:01 10:02:56 40° 254° (WSW) 10:13:29 29.354- 29.394
ESTCUBE 1 20 Jan 10:11:50 10:14:39 16° 91° (E) 10:17:27 437.505/2401.250
BUGSAT 1 20 Jan 10:14:44 10:17:14 16° 64° (ENE) 10:19:44 437.445
FUNcube-1 20 Jan 10:24:31 10:26:11 12° 299° (WNW) 10:27:52 145.935
JAS-2 20 Jan 10:33:51 10:38:58 47° 262° (W) 10:44:36 435.910
QB50P1 20 Jan 10:34:45 10:38:57 85° 75° (ENE) 10:43:10 145.935-145.965
POLYITAN 1 20 Jan 10:38:51 10:43:03 86° 258° (WSW) 10:47:15 437.675
QB50P2 20 Jan 10:40:05 10:44:17 79° 258° (WSW) 10:48:30 145.880/145.840
SPROUT 20 Jan 10:55:33 10:57:01 12° 89° (E) 10:58:29 437.525
HUMSAT D 20 Jan 10:58:43 11:02:08 24° 293° (WNW) 11:05:33 437.325/437.525
BY70-1 20 Jan 11:00:04 11:03:25 66° 285° (WNW) 11:06:33 436.1900
POPSAT HIP 1 20 Jan 11:01:51 11:05:55 49° 260° (W) 11:10:00 437.405
Oscar 19 20 Jan 11:02:50 11:06:27 19° 61° (ENE) 11:10:05 437.125/150
Cosmos 2491 20 Jan 11:08:59 11:15:19 21° 61° (ENE) 11:21:37 435.465 / 435.565
CUBEBUG 1 20 Jan 11:10:10 11:14:11 36° 98° (E) 11:18:10 437.445
PCSat 20 Jan 11:10:18 11:13:14 15° 256° (WSW) 11:16:11 145.827
DUCHIFAT 1 20 Jan 11:13:02 11:16:59 42° 261° (W) 11:20:59 145.980
Gurwin Techsat 1B 20 Jan 11:16:25 11:19:14 15° 58° (ENE) 11:22:04 435.225
NANOSAT C BR1 20 Jan 11:18:41 11:22:30 34° 263° (W) 11:26:19 145.865
